2023/01/06 00:00:00,88.7,-1.5
2023/01/06 00:10:00,88.6,-1.4
2023/01/06 00:20:00,88.6,-1.4
2023/01/06 00:30:00,88.5,-1.5
2023/01/06 00:40:00,88.5,-1.6
2023/01/06 00:50:00,88.8,-1.4
2023/01/06 01:00:00,88.8,-1.5
2023/01/06 01:10:00,88.8,-1.3
2023/01/06 01:20:00,88.7,-1.5
2023/01/06 01:30:00,88.6,-1.5
2023/01/06 01:40:00,88.5,-1.8
2023/01/06 01:50:00,88.4,-1.8
2023/01/06 02:00:00,88.4,-1.7
2023/01/06 02:10:00,88.3,-1.7
2023/01/06 02:20:00,88.2,-1.7
2023/01/06 02:30:00,88.2,-1.8
2023/01/06 02:40:00,88.2,-1.7
2023/01/06 02:50:00,88.4,-1.6
2023/01/06 03:00:00,88.4,-1.7
2023/01/06 03:10:00,88.3,-1.6
2023/01/06 03:20:00,88.2,-1.8
2023/01/06 03:30:00,88.1,-1.9
2023/01/06 03:40:00,88.2,-2.0
2023/01/06 03:50:00,88.1,-2.0
2023/01/06 04:00:00,88.0,-1.8
2023/01/06 04:10:00,87.9,-2.0
2023/01/06 04:20:00,87.9,-2.2
2023/01/06 04:30:00,87.8,-2.1
2023/01/06 04:40:00,87.8,-1.9
2023/01/06 04:50:00,87.7,-1.9
2023/01/06 05:00:00,87.8,-1.9
2023/01/06 05:10:00,87.9,-2.1
2023/01/06 05:20:00,87.9,-1.8
2023/01/06 05:30:00,87.9,-2.1
2023/01/06 05:40:00,87.8,-2.0
2023/01/06 05:50:00,87.8,-1.8
2023/01/06 06:00:00,87.7,-1.7
2023/01/06 06:10:00,87.7,-2.0
2023/01/06 06:20:00,87.6,-1.9
2023/01/06 06:30:00,87.6,-1.9
2023/01/06 06:40:00,87.5,-1.9
2023/01/06 06:50:00,87.4,-1.9
2023/01/06 07:00:00,87.4,-1.8
2023/01/06 07:10:00,87.3,-2.1
2023/01/06 07:20:00,87.3,-2.0
2023/01/06 07:30:00,87.2,-1.9
2023/01/06 07:40:00,87.1,-1.7
2023/01/06 07:50:00,87.1,-1.3
2023/01/06 08:00:00,87.1,-1.4
2023/01/06 08:10:00,87.1,-1.9
2023/01/06 08:20:00,87.0,-1.8
2023/01/06 08:30:00,86.9,-1.9
2023/01/06 08:40:00,86.9,-1.8
2023/01/06 08:50:00,86.9,-1.6
2023/01/06 09:00:00,86.9,-1.4
2023/01/06 09:10:00,86.9,-0.4
2023/01/06 09:20:00,86.8, 1.2
2023/01/06 09:30:00,86.8, 1.9
2023/01/06 09:40:00,86.8, 1.4
2023/01/06 09:50:00,86.7, 3.2
2023/01/06 10:00:00,86.6, 3.5
2023/01/06 10:10:00,86.7, 4.2
2023/01/06 10:20:00,86.6, 4.6
2023/01/06 10:30:00,86.5, 5.9
2023/01/06 10:40:00,86.4, 4.2
2023/01/06 10:50:00,86.4, 6.3
2023/01/06 11:00:00,86.0, 8.5
2023/01/06 11:10:00,85.5, 7.4
2023/01/06 11:20:00,85.4, 6.4
2023/01/06 11:30:00,85.3, 7.3
2023/01/06 11:40:00,85.2, 7.7
2023/01/06 11:50:00,85.2, 7.4
2023/01/06 12:00:00,85.1, 8.4
2023/01/06 12:10:00,85.1, 9.1
2023/01/06 12:20:00,84.9, 8.3
2023/01/06 12:30:00,84.8, 8.4
2023/01/06 12:40:00,84.8, 8.0
2023/01/06 12:50:00,84.8, 7.8
2023/01/06 13:00:00,84.7, 8.3
2023/01/06 13:10:00,84.5, 7.8
2023/01/06 13:20:00,84.4, 6.7
2023/01/06 13:30:00,84.3, 7.8
2023/01/06 13:40:00,84.2, 9.6
2023/01/06 13:50:00,84.1,10.6
2023/01/06 14:00:00,84.1, 8.0
2023/01/06 14:10:00,84.0, 6.0
2023/01/06 14:20:00,83.8, 5.8
2023/01/06 14:30:00,83.7, 5.3
2023/01/06 14:40:00,83.6, 4.6
2023/01/06 14:50:00,83.6, 8.1
2023/01/06 15:00:00,83.5, 7.4
2023/01/06 15:10:00,83.4, 6.2
2023/01/06 15:20:00,83.4, 7.4
2023/01/06 15:30:00,83.3, 5.5
2023/01/06 15:40:00,83.2, 3.7
2023/01/06 15:50:00,83.1, 2.3
2023/01/06 16:00:00,83.2, 1.6
2023/01/06 16:10:00,83.2, 1.3
2023/01/06 16:20:00,83.1, 1.4
2023/01/06 16:30:00,83.1, 0.8
2023/01/06 16:40:00,83.1, 0.7
2023/01/06 16:50:00,83.0, 0.9
2023/01/06 17:00:00,83.0, 0.6
2023/01/06 17:10:00,82.9, 0.2
2023/01/06 17:20:00,82.8,-0.2
2023/01/06 17:30:00,82.8,-0.2
2023/01/06 17:40:00,82.7, 0.0
2023/01/06 17:50:00,82.7,-0.4
2023/01/06 18:00:00,82.7,-0.6
2023/01/06 18:10:00,82.7,-0.9
2023/01/06 18:20:00,82.6,-1.2
2023/01/06 18:30:00,82.6,-1.4
2023/01/06 18:40:00,82.6,-1.2
2023/01/06 18:50:00,82.6,-1.4
2023/01/06 19:00:00,82.5,-1.3
2023/01/06 19:10:00,82.5,-1.5
2023/01/06 19:20:00,82.4,-1.1
2023/01/06 19:30:00,82.4,-1.2
2023/01/06 19:40:00,82.4,-1.5
2023/01/06 19:50:00,82.3,-1.5
2023/01/06 20:00:00,82.3,-1.4
2023/01/06 20:10:00,82.2,-1.5
2023/01/06 20:20:00,82.2,-1.5
2023/01/06 20:30:00,82.1,-1.6
2023/01/06 20:40:00,82.0,-1.9
2023/01/06 20:50:00,82.0,-2.1
2023/01/06 21:00:00,82.0,-2.4
2023/01/06 21:10:00,81.9,-2.4
2023/01/06 21:20:00,81.8,-2.4
2023/01/06 21:30:00,81.8,-2.4
2023/01/06 21:40:00,81.7,-2.5
2023/01/06 21:50:00,81.7,-2.3
2023/01/06 22:00:00,81.6,-2.4
2023/01/06 22:10:00,81.7,-2.0
2023/01/06 22:20:00,81.7,-1.7
2023/01/06 22:30:00,81.6,-1.6
2023/01/06 22:40:00,81.6,-1.3
2023/01/06 22:50:00,81.5,-1.8
2023/01/06 23:00:00,81.5,-2.1
2023/01/06 23:10:00,81.4,-1.9
2023/01/06 23:20:00,81.3,-2.1
2023/01/06 23:30:00,81.3,-2.2
2023/01/06 23:40:00,81.2,-2.4
2023/01/06 23:50:00,81.2,-2.3
